Stations météo

Publicité
Auch, France (7622): Température de l'air & dewpoint: 12.12.2017 21:00:00 - 18.12.2017 21:00:00 (CET)Auch, France (7622): Température de l'air 5cm: 12.12.2017 21:00:00 - 18.12.2017 21:00:00 (CET)Auch, France (7622): Température de l'air -20cm & Température de l'air -100cm: 12.12.2017 21:00:00 - 18.12.2017 21:00:00 (CET)Auch, France (7622): Vitesse du vent & gusts: 12.12.2017 21:00:00 - 18.12.2017 21:00:00 (CET)Auch, France (7622): Direction du vent: 12.12.2017 21:00:00 - 18.12.2017 21:00:00 (CET)Auch, France (7622): reduced air pressure: 12.12.2017 21:00:00 - 18.12.2017 21:00:00 (CET)Auch, France (7622): visibility: 12.12.2017 21:00:00 - 18.12.2017 21:00:00 (CET)Auch, France (7622): Ensoleillement: 12.12.2017 21:00:00 - 18.12.2017 21:00:00 (CET)Auch, France (7622): Quantités de précipitations: 12.12.2017 21:00:00 - 18.12.2017 21:00:00 (CET)
Date & Time tt [°C] td [°C] tt 5cm [°C] tt -20cm [°C] tt -100cm [°C] ff [km/h] ff [knt] fx [km/h] fx [knt] dd ppp [hPa] vv [km] sd [min] rr [mm]
18.12.2017 21:00:00 8,2 6,0 6,4 7,8 10,9 13 7 20 11 NNW 1027,5 20 0 0,0
18.12.2017 20:00:00 9,4 7,7 8,0 7,8 11,0 13 7 19 11 N 1026,6 20 0 0,0
18.12.2017 19:00:00 10,6 10,4 9,4 7,7 10,9 12 6 21 11 NNW 1025,2 20 0 0,0
18.12.2017 18:00:00 9,9 9,9 8,9 7,6 10,9 14 8 35 19 WNW 1024,4 5 0 1,2
18.12.2017 17:00:00 9,4 9,3 8,8 7,5 10,9 18 10 42 23 W 1023,6 4,1 0 0,4
18.12.2017 16:00:00 9,4 9,1 8,6 7,4 10,9 20 11 42 23 WSW 1023,8 3,2 0 1,8
18.12.2017 15:00:00 9,2 8,7 8,6 7,4 11,0 21 12 45 25 WSW 1024,4 4,3 0 1,0
18.12.2017 14:00:00 9,2 8,7 8,8 7,2 10,9 18 10 42 23 WSW 1025,9 7 0 0,6
18.12.2017 13:00:00 9,2 8,3 8,7 7,2 10,9 19 11 37 20 WSW 1027,6 11 0 0,2
18.12.2017 12:00:00 9,1 7,2 8,5 7,2 11,0 16 9 34 18 WSW 1029,0 8 0 0,0
18.12.2017 11:00:00 9,3 6,2 8,4 7,2 11,0 14 8 28 15 WSW 1029,5 20 0 0,0
18.12.2017 10:00:00 8,2 5,1 7,5 7,1 11,0 13 7 23 12 SW 1030,0 20 0 0,0
18.12.2017 09:00:00 7,8 4,9 6,7 7,2 11,0 12 7 30 16 WSW 1030,5 20 0 0,0
18.12.2017 08:00:00 7,3 4,8 6,4 7,1 11,0 11 6 24 13 SW 1030,7 20 0 0,0
18.12.2017 07:00:00 7,3 4,9 6,2 7,2 11,0 13 7 24 13 SW 1031,3 20 0 0,0
18.12.2017 06:00:00 6,9 5,0 6,0 7,2 11,0 11 6 19 10 WSW 1032,0 20 0 0,0
18.12.2017 05:00:00 7,0 5,0 4,7 7,2 11,0 7 4 16 8 WSW 1032,4 20 0 0,0
18.12.2017 04:00:00 5,2 4,0 2,6 7,2 11,0 5 3 9 5 S 1032,9 20 0 0,0
18.12.2017 03:00:00 5,5 3,5 3,4 7,2 11,0 4 2 13 7 SSW 1032,7 20 0 0,0
18.12.2017 02:00:00 6,4 4,9 4,5 7,2 11,0 10 5 17 9 SW 1032,7 20 0 0,0
18.12.2017 01:00:00 6,9 5,0 5,6 7,2 11,0 6 4 11 6 SW 1033,2 20 0 0,0
18.12.2017 00:00:00 7,3 5,1 6,5 7,2 11,1 5 3 12 7 WSW 1033,3 20 0 0,0
17.12.2017 23:00:00 7,5 5,3 6,5 7,1 11,0 6 3 14 8 WSW 1033,3 20 0 0,0
17.12.2017 22:00:00 7,9 5,2 7,4 7,1 11,0 7 4 14 8 WSW 1033,2 20 0 0,0
17.12.2017 21:00:00 8,0 4,6 7,3 7,1 11,1 7 4 15 8 WSW 1032,8 20 0 0,0
17.12.2017 20:00:00 8,1 4,5 7,4 7,0 11,0 5 3 13 7 WSW 1032,7 20 0 0,0
17.12.2017 19:00:00 8,1 4,3 7,3 7,0 11,1 5 3 14 8 W 1032,3 20 0 0,0
17.12.2017 18:00:00 8,3 4,1 7,5 6,9 11,0 9 5 17 9 W 1031,8 20 0 0,0
17.12.2017 17:00:00 8,5 3,9 7,8 6,8 11,1 8 4 17 9 WSW 1031,2 20 0 0,0
17.12.2017 16:00:00 9,0 3,8 8,9 6,7 11,0 10 6 22 12 W 1030,8 20 0 0,0
17.12.2017 15:00:00 9,3 3,5 9,8 6,6 11,1 13 7 29 16 W 1030,2 20 5 0,0
17.12.2017 14:00:00 8,9 2,9 8,9 6,5 11,1 13 7 25 14 WSW 1030,4 20 0 0,0
17.12.2017 13:00:00 8,2 2,2 7,0 6,5 11,1 14 7 23 12 WSW 1030,9 20 8 0,0
17.12.2017 12:00:00 7,2 1,7 6,2 6,5 11,1 9 5 20 11 WSW 1031,5 20 9 0,0
17.12.2017 11:00:00 4,9 4,5 3,2 6,5 11,1 8 4 14 8 S 1031,8 20 2 0,0
17.12.2017 10:00:00 2,7 2,7 0,9 6,6 11,1 9 5 13 7 S 1031,8 20 0 0,0
17.12.2017 09:00:00 1,3 1,3 0,2 6,7 11,1 8 5 12 6 S 1031,2 11 0 0,0
17.12.2017 08:00:00 1,1 1,1 0,0 6,8 11,1 9 5 13 7 S 1031,1 13 0 0,0
17.12.2017 07:00:00 0,8 0,8 -1,6 6,8 11,1 9 5 11 6 S 1030,8 13 0 0,0
17.12.2017 06:00:00 0,5 0,5 -2,4 6,9 11,1 7 4 13 7 S 1030,5 12 0 0,0
17.12.2017 05:00:00 -0,8 -0,8 -3,1 7,0 11,1 7 4 13 7 S 1030,3 7 0 0,0
17.12.2017 04:00:00 -0,4 -0,4 -2,2 7,1 11,1 10 6 13 7 S 1030,2 8 0 0,0
17.12.2017 03:00:00 -0,5 -0,5 -1,9 7,2 11,1 10 5 13 7 S 1029,9 7 0 0,0
17.12.2017 02:00:00 0,1 0,1 -2,0 7,4 11,1 11 6 14 8 S 1029,7 12 0 0,0
17.12.2017 01:00:00 0,5 0,5 -1,6 7,5 11,1 7 4 14 8 S 1029,8 15 0 0,0
17.12.2017 00:00:00 -0,2 -0,3 -3,4 7,6 11,1 10 6 13 7 S 1029,6 12 0 0,0
16.12.2017 23:00:00 0,2 -0,1 -3,8 7,6 11,1 3 2 7 4 S 1029,1 17 0 0,0
16.12.2017 22:00:00 1,1 0,5 -1,8 7,7 11,1 5 3 13 7 S 1028,3 20 0 0,0
16.12.2017 21:00:00 1,6 1,3 -2,2 7,7 11,1 4 2 10 5 NW 1027,8 20 0 0,0
16.12.2017 20:00:00 1,6 1,0 -1,7 7,8 11,1 2 1 4 2 SW 1027,0 12 0 0,0
16.12.2017 19:00:00 3,4 2,5 0,2 7,8 11,1 3 1 5 3 WSW 1026,0 20 0 0,0
16.12.2017 18:00:00 4,2 2,4 2,3 7,7 11,1 4 2 15 8 S 1025,1 20 0 0,0
16.12.2017 17:00:00 5,3 2,1 4,1 7,7 11,1 14 8 27 14 NW 1024,3 6 0 0,4
16.12.2017 16:00:00 7,4 0,8 7,1 7,6 11,1 9 5 19 10 WNW 1023,2 20 2 0,0
16.12.2017 15:00:00 7,6 1,9 7,9 7,6 11,1 9 5 23 13 NW 1022,6 20 3 0,0
16.12.2017 14:00:00 7,5 1,1 8,1 7,6 11,1 16 8 24 13 NW 1022,1 20 0 0,0
16.12.2017 13:00:00 7,5 2,2 7,9 7,6 11,1 7 4 13 7 W 1022,1 20 0 0,0
16.12.2017 12:00:00 6,9 2,6 7,6 7,7 11,1 9 5 17 9 WSW 1022,0 20 4 0,0
16.12.2017 11:00:00 6,6 3,9 6,0 7,7 11,1 8 5 17 9 WNW 1021,7 20 60 0,0
16.12.2017 10:00:00 4,5 4,5 -1,8 7,8 11,1 9 5 18 10 W 1020,8 20 57 0,0
16.12.2017 09:00:00 1,2 1,2 -2,5 8,0 11,1 4 2 8 5 W 1020,3 20 0 0,0
16.12.2017 08:00:00 0,8 0,8 -2,9 8,1 11,1 4 2 6 4 WSW 1019,2 15 0 0,0
16.12.2017 07:00:00 2,1 2,0 -2,0 8,2 11,1 0 0 6 3 N 1018,2 20 0 0,0
16.12.2017 06:00:00 2,5 2,1 -0,6 8,3 11,1 2 1 6 4 W 1017,4 16 0 0,0
16.12.2017 05:00:00 3,0 2,4 -0,1 8,4 11,1 2 1 9 5 W 1016,6 20 0 0,0
16.12.2017 04:00:00 4,0 3,1 1,3 8,5 11,1 4 2 11 6 W 1015,9 20 0 0,0
16.12.2017 03:00:00 4,4 3,2 2,4 8,5 11,1 6 3 15 8 WSW 1015,5 20 0 0,0
16.12.2017 02:00:00 4,6 3,4 2,7 8,6 11,1 7 4 13 7 WSW 1014,7 20 0 0,0
16.12.2017 01:00:00 5,1 3,6 3,6 8,6 11,1 7 4 15 8 W 1014,1 20 0 0,0
16.12.2017 00:00:00 5,8 4,1 4,6 8,7 11,1 9 5 22 12 WSW 1013,9 20 0 0,0
15.12.2017 23:00:00 6,0 4,0 4,5 8,8 11,1 9 5 21 11 W 1012,9 20 0 0,0
15.12.2017 22:00:00 6,0 3,8 5,1 8,8 11,0 14 8 30 16 SW 1012,0 20 0 0,0
15.12.2017 21:00:00 6,4 4,4 5,1 8,9 11,1 11 6 22 12 SW 1011,3 20 0 0,0
15.12.2017 20:00:00 6,0 4,2 3,5 8,9 11,0 13 7 23 12 SSW 1010,7 20 0 0,0
15.12.2017 19:00:00 6,1 3,6 4,9 9,0 11,1 10 6 40 22 WSW 1009,9 20 0 1,4
15.12.2017 18:00:00 6,7 4,7 5,8 9,0 11,1 9 5 31 17 W 1009,6 17 0 0,2
15.12.2017 17:00:00 7,2 5,2 6,3 8,9 11,1 19 10 44 24 SW 1008,5 20 4 0,2
15.12.2017 16:00:00 7,6 4,9 6,1 8,9 11,0 17 9 44 24 WSW 1008,0 20 16 0,8
15.12.2017 15:00:00 8,9 6,2 7,1 8,8 11,0 14 8 40 21 WSW 1007,8 18 22 0,4
15.12.2017 14:00:00 9,4 4,0 8,8 8,8 11,0 22 12 48 26 WSW 1007,9 20 39 0,0
15.12.2017 13:00:00 9,1 4,3 9,6 8,8 11,0 22 12 44 24 WSW 1008,7 20 55 0,0
15.12.2017 12:00:00 8,9 5,1 9,8 8,8 11,0 19 11 38 20 WSW 1009,6 20 60 0,0
15.12.2017 11:00:00 7,6 4,5 6,1 8,9 11,0 16 9 32 17 SW 1010,1 20 39 0,0
15.12.2017 10:00:00 6,6 4,6 5,0 8,9 11,0 15 8 30 16 SW 1010,2 18 5 0,0
15.12.2017 09:00:00 6,3 4,6 5,2 9,0 11,1 16 9 33 18 SW 1009,5 20 0 0,0
15.12.2017 08:00:00 6,5 5,0 5,4 9,0 11,0 14 8 25 13 SW 1008,9 20 0 0,0
15.12.2017 07:00:00 6,0 4,8 5,4 9,0 11,0 16 9 29 15 S 1008,2 20 0 0,8
15.12.2017 06:00:00 6,5 5,3 5,9 9,1 11,0 14 8 31 17 NNW 1008,8 11 0 3,0
15.12.2017 05:00:00 7,7 6,3 6,9 9,1 11,0 18 10 35 19 NNW 1007,8 9 0 3,7
15.12.2017 04:00:00 9,2 7,5 8,2 9,1 11,0 13 7 46 25 W 1007,2 14 0 3,4
15.12.2017 03:00:00 10,7 6,8 9,3 9,2 11,1 18 10 42 23 SW 1007,1 20 0 0,0
15.12.2017 02:00:00 10,6 6,7 9,6 9,2 11,1 20 11 48 26 WSW 1007,6 20 0 0,0
15.12.2017 01:00:00 10,9 7,8 9,5 9,1 11,0 22 12 41 22 WSW 1008,5 20 0 0,0
15.12.2017 00:00:00 10,7 8,1 9,2 9,1 11,0 17 9 34 18 WSW 1009,0 19 0 0,0
14.12.2017 23:00:00 10,6 8,0 9,2 9,2 11,1 15 8 33 18 WSW 1009,1 20 0 0,0
14.12.2017 22:00:00 11,1 9,0 9,2 9,1 11,0 15 8 27 15 WSW 1009,2 20 0 0,2
14.12.2017 21:00:00 11,3 8,9 10,2 9,1 11,1 14 7 32 17 SW 1009,8 20 0 0,0
14.12.2017 20:00:00 11,4 9,5 10,0 9,1 11,1 16 8 32 17 WSW 1010,1 20 0 0,0
14.12.2017 19:00:00 10,8 10,0 9,6 9,0 11,1 11 6 29 15 WSW 1010,4 20 0 1,6
14.12.2017 18:00:00 10,7 8,8 9,2 8,9 11,1 7 4 40 21 W 1011,0 20 0 0,4
14.12.2017 17:00:00 12,0 9,0 10,4 8,8 11,1 20 11 42 23 W 1011,4 8 0 0,2
14.12.2017 16:00:00 12,5 8,6 11,9 8,7 11,1 24 13 42 23 WSW 1011,5 20 4 0,0
14.12.2017 15:00:00 12,8 9,6 10,9 8,6 11,1 16 8 37 20 WSW 1011,9 20 22 0,0
14.12.2017 14:00:00 11,7 9,6 11,1 8,5 11,1 18 10 45 24 WSW 1012,7 6 11 0,0
14.12.2017 13:00:00 12,2 8,8 11,4 8,4 11,0 18 10 43 23 W 1013,6 17 24 0,0
14.12.2017 12:00:00 13,2 8,7 11,6 8,4 11,1 20 11 42 23 SW 1014,2 20 52 0,0
14.12.2017 11:00:00 12,4 9,0 10,4 8,3 11,1 17 9 29 16 SW 1015,4 20 37 0,0
14.12.2017 10:00:00 10,9 10,0 10,0 8,2 11,1 12 6 24 13 WSW 1016,1 20 0 0,6
14.12.2017 09:00:00 10,6 10,1 9,9 8,2 11,1 11 6 28 15 SW 1016,2 3,9 0 0,8
14.12.2017 08:00:00 11,0 9,1 9,9 8,1 11,1 11 6 29 16 WSW 1016,2 3,8 0 0,2
14.12.2017 07:00:00 11,1 9,0 10,6 8,1 11,1 16 9 37 20 WSW 1015,8 20 0 0,0
14.12.2017 06:00:00 11,3 9,6 10,4 8,0 11,1 16 9 40 22 WSW 1015,5 20 0 0,0
14.12.2017 05:00:00 11,3 10,2 10,4 8,0 11,1 13 7 29 16 WSW 1016,1 12 0 0,2
14.12.2017 04:00:00 11,8 9,7 11,0 7,9 11,1 16 9 32 17 WSW 1016,2 13 0 0,0
14.12.2017 03:00:00 11,9 9,6 11,2 7,8 11,1 16 9 32 17 SW 1016,3 20 0 0,0
14.12.2017 02:00:00 11,8 9,5 11,1 7,8 11,1 17 9 37 20 W 1016,3 20 0 0,0
14.12.2017 01:00:00 11,8 9,9 10,6 7,7 11,1 23 12 42 23 WSW 1016,2 20 0 0,0
14.12.2017 00:00:00 11,5 10,1 10,6 7,6 11,1 20 11 48 26 W 1016,6 12 0 0,0
13.12.2017 23:00:00 13,2 8,9 11,2 7,6 11,1 16 8 45 24 W 1015,8 20 0 0,0
13.12.2017 22:00:00 12,9 7,6 11,2 7,5 11,1 19 11 44 24 WSW 1015,5 20 0 0,0
13.12.2017 21:00:00 12,0 7,3 10,0 7,5 11,1 18 10 35 19 WSW 1015,7 20 0 0,0
13.12.2017 20:00:00 11,1 6,6 9,8 7,4 11,1 11 6 39 21 SW 1015,8 20 0 0,0
13.12.2017 19:00:00 12,2 5,8 8,7 7,3 11,1 17 9 37 20 WSW 1015,9 20 0 0,2
13.12.2017 18:00:00 12,0 6,3 9,6 7,2 11,1 9 5 18 10 SW 1015,8 20 0 0,0
13.12.2017 17:00:00 12,2 6,2 10,9 7,1 11,1 10 6 21 12 SSW 1016,2 20 0 0,0
13.12.2017 16:00:00 12,8 5,9 12,2 7,0 11,1 13 7 23 13 SW 1016,5 20 0 0,0
13.12.2017 15:00:00 12,6 6,2 11,9 7,0 11,1 11 6 26 14 WSW 1017,1 20 0 0,0
13.12.2017 14:00:00 12,0 6,1 10,3 6,9 11,1 13 7 25 13 SW 1017,7 20 4 0,0
13.12.2017 13:00:00 9,4 3,6 7,5 6,9 11,1 9 5 18 10 S 1019,1 20 0 0,0
13.12.2017 12:00:00 7,0 0,9 5,6 6,9 11,1 14 8 20 11 S 1019,8 20 0 0,0
13.12.2017 11:00:00 4,8 0,2 3,4 7,0 11,1 13 7 17 9 S 1020,8 20 0 0,0
13.12.2017 10:00:00 3,0 0,1 1,8 7,0 11,1 8 5 11 6 S 1021,3 20 0 0,0
13.12.2017 09:00:00 1,8 -0,5 0,6 7,1 11,1 7 4 15 8 S 1021,2 20 0 0,0
13.12.2017 08:00:00 1,0 -0,9 -0,2 7,2 11,1 15 8 19 11 S 1021,2 20 0 0,0
13.12.2017 07:00:00 0,0 -0,9 -1,7 7,4 11,1 10 6 15 8 S 1021,9 20 0 0,0
13.12.2017 06:00:00 -1,0 -1,6 -2,8 7,5 11,1 11 6 14 7 S 1021,9 20 0 0,0
13.12.2017 05:00:00 -0,7 -1,3 -3,2 7,6 11,1 8 4 12 7 S 1022,6 20 0 0,0
13.12.2017 04:00:00 -1,4 -2,2 -3,2 7,7 11,1 6 4 13 7 S 1022,6 20 0 0,0
13.12.2017 03:00:00 -0,1 -0,8 -1,1 7,7 11,1 11 6 15 8 S 1022,3 20 0 0,0
13.12.2017 02:00:00 0,2 -0,9 -1,3 7,8 11,1 8 4 12 7 S 1023,1 20 0 0,0
13.12.2017 01:00:00 1,1 -0,4 0,2 7,9 11,1 13 7 17 9 S 1022,9 20 0 0,0
13.12.2017 00:00:00 1,9 0,9 1,3 8,0 11,1 13 7 20 11 S 1023,3 20 0 0,0
12.12.2017 23:00:00 1,5 1,1 -1,3 8,1 11,1 11 6 14 8 S 1023,0 20 0 0,0
12.12.2017 22:00:00 1,6 0,7 0,4 8,1 11,1 9 5 11 6 S 1022,6 20 0 0,0
12.12.2017 21:00:00 2,1 1,5 0,8 8,2 11,1 10 5 12 6 S 1021,6 20 0 0,0

tt = Température de l'air
td = dewpoint
tt 5cm = Température de l'air 5cm
tt -20cm = Température de l'air -20cm
tt -100cm = Température de l'air -100cm
ff = Vitesse du vent
fx = gusts
dd = Direction du vent
ppp = reduced air pressure
vv = visibility
sd = Ensoleillement
rr = Quantités de précipitations

stations d'obs. à proximité